Log Lane Village, CO

10:15 PM MDT on September 30, 2016 (GMT -0600)
Fort Morgan

Weather History for KFMM - June, 2013

Change the Weather History Date:

Wednesday, June 12, 2013

  Actual Average (KAKO) Record (KAKO)
Temperature  
Mean Temperature 72 °F 66 °F  
Max Temperature 83 °F 80 °F 102 °F (1952)
Min Temperature 60 °F 52 °F 31 °F (1947)
Degree Days  
Heating Degree Days 0    
Month to date heating degree days  
Cooling Degree Days 7    
Month to date cooling degree days  
Growing Degree Days 22 (Base 50)    
Moisture  
Dew Point 38 °F    
Average Humidity 35    
Maximum Humidity 71    
Minimum Humidity 11    
Precipitation  
Precipitation 0.00 in 0.09 in 0.83 in (1949)
Month to date precipitation 1.15  
Year to date precipitation 7.33  
Sea Level Pressure  
Sea Level Pressure 30.09 in    
Wind  
Wind Speed 15 mph (NE)    
Max Wind Speed 26 mph    
Max Gust Speed 36 mph    
Visibility 10 miles    
Events      
T = Trace of Precipitation, MM = Missing Value Source: NWS Daily Summary

Daily Weather History Graph

Daily Weather History Graph

Search for Another Location

Airport or City:

Trip Planner

Search our weather history database for the weather conditions in past years. The results will help you decide how hot, cold, wet, or windy it might be!

Date:

Astronomy

Jun. 12, 2013 Rise Set
Actual Time 5:24 AM MDT 8:25 PM MDT
Civil Twilight 4:51 AM MDT 8:58 PM MDT
Nautical Twilight 4:09 AM MDT 9:40 PM MDT
Astronomical Twilight 3:20 AM MDT 10:29 PM MDT
Moon 9:06 AM MDT (6/12) 11:02 PM MDT (6/12)
Length of Visible Light 16h 07m
Length of Day
15h 01m
Waxing Crescent, 14% of the Moon is Illuminated
Jun 12
Waxing Crescent
Jun 16
First Quarter
Jun 23
Full
Jun 29
Last Quarter
Jul 8
New

Hourly Weather History & Observations

Time (MDT) Temp. Dew Point Humidity Pressure Visibility Wind Dir Wind Speed Gust Speed Precip Events Conditions
12:15 AM 76.3 °F 23.5 °F 14% 29.96 in 10.0 mi NNW 16.1 mph - N/A   Clear
12:35 AM 73.9 °F 22.1 °F 14% 29.97 in 10.0 mi NW 23.0 mph 27.6 mph N/A   Clear
12:55 AM 76.3 °F 20.3 °F 12% 29.98 in 10.0 mi NW 19.6 mph 26.5 mph N/A   Clear
1:15 AM 77.9 °F 18.9 °F 11% 29.99 in 10.0 mi NW 25.3 mph 34.5 mph N/A   Clear
1:35 AM 75.4 °F 19.4 °F 12% 29.99 in 10.0 mi NNW 19.6 mph 25.3 mph N/A   Clear
1:55 AM 72.9 °F 20.1 °F 14% 30.00 in 10.0 mi NNW 19.6 mph 24.2 mph N/A   Clear
2:15 AM 72.5 °F 20.3 °F 14% 30.00 in 10.0 mi NNW 15.0 mph - N/A   Clear
2:35 AM 72.5 °F 20.7 °F 14% 30.02 in 10.0 mi NNW 13.8 mph - N/A   Clear
2:55 AM 73.2 °F 21.0 °F 14% 30.02 in 10.0 mi NNW 19.6 mph 24.2 mph N/A   Clear
3:15 AM 72.9 °F 21.2 °F 14% 30.02 in 10.0 mi NW 16.1 mph - N/A   Clear
3:35 AM 70.3 °F 22.3 °F 16% 30.03 in 10.0 mi NNW 16.1 mph - N/A   Clear
3:55 AM 70.0 °F 23.5 °F 17% 30.04 in 10.0 mi NNW 17.3 mph - N/A   Clear
4:15 AM 71.8 °F 24.6 °F 17% 30.05 in 10.0 mi NW 18.4 mph - N/A   Clear
4:35 AM 71.6 °F 25.7 °F 18% 30.06 in 10.0 mi NW 16.1 mph - N/A   Clear
4:55 AM 71.2 °F 26.6 °F 19% 30.07 in 10.0 mi NW 16.1 mph - N/A   Clear
5:15 AM 70.3 °F 26.4 °F 19% 30.08 in 10.0 mi NW 13.8 mph - N/A   Clear
5:35 AM 67.1 °F 27.5 °F 23% 30.09 in 10.0 mi NNW 12.7 mph - N/A   Clear
5:55 AM 68.9 °F 28.9 °F 23% 30.11 in 10.0 mi North 12.7 mph - N/A   Clear
6:15 AM 65.7 °F 28.8 °F 25% 30.11 in 10.0 mi NNW 15.0 mph - N/A   Clear
6:35 AM 66.0 °F 29.8 °F 26% 30.12 in 10.0 mi North 15.0 mph - N/A   Clear
6:55 AM 65.1 °F 31.6 °F 29% 30.13 in 10.0 mi North 13.8 mph 18.4 mph N/A   Clear
7:15 AM 66.4 °F 34.3 °F 31% 30.14 in 10.0 mi North 15.0 mph - N/A   Clear
7:35 AM 68.4 °F 46.2 °F 45% 30.14 in 10.0 mi North 13.8 mph - N/A   Clear
7:55 AM 69.6 °F 51.8 °F 53% 30.14 in 10.0 mi North 12.7 mph - N/A   Clear
8:15 AM 70.7 °F 54.1 °F 56% 30.14 in 10.0 mi NNE 10.4 mph - N/A   Clear
8:35 AM 71.8 °F 54.0 °F 53% 30.15 in 10.0 mi NNE 8.1 mph - N/A   Clear
8:55 AM 74.5 °F 54.0 °F 49% 30.15 in 10.0 mi NNE 8.1 mph - N/A   Clear
9:15 AM 75.2 °F 53.6 °F 47% 30.15 in 10.0 mi NNE 6.9 mph - N/A   Clear
9:35 AM 77.7 °F 53.4 °F 43% 30.14 in 10.0 mi NE 6.9 mph - N/A   Clear
9:55 AM 78.3 °F 52.2 °F 40% 30.15 in 10.0 mi ENE 4.6 mph - N/A   Clear
10:15 AM 78.8 °F 50.9 °F 38% 30.14 in 10.0 mi North 5.8 mph - N/A   Clear
10:35 AM 80.4 °F 47.7 °F 32% 30.14 in 10.0 mi Calm Calm - N/A   Clear
10:55 AM 81.3 °F 45.7 °F 28% 30.14 in 10.0 mi NE 4.6 mph - N/A   Clear
11:15 AM 83.1 °F 43.0 °F 24% 30.13 in 10.0 mi East 4.6 mph - N/A   Clear
11:35 AM 82.6 °F 32.2 °F 16% 30.13 in 10.0 mi North 5.8 mph - N/A   Clear
11:55 AM - - N/A% 30.13 in 10.0 mi NE 5.8 mph - N/A   Clear
12:15 PM - - N/A% 30.12 in 10.0 mi East 4.6 mph - N/A   Clear
12:35 PM - - N/A% 30.12 in 10.0 mi SSE 9.2 mph - N/A   Clear
12:55 PM - - N/A% 30.11 in 10.0 mi SSE 6.9 mph - N/A   Clear
1:15 PM - - N/A% 30.11 in 10.0 mi ESE 5.8 mph - N/A   Clear
1:35 PM - - N/A% 30.11 in 10.0 mi ESE 9.2 mph - N/A   Clear
1:55 PM - - N/A% 30.11 in 10.0 mi SE 6.9 mph - N/A   Clear
2:15 PM - - N/A% 30.11 in 10.0 mi ESE 6.9 mph - N/A   Clear
2:35 PM - - N/A% 30.09 in 10.0 mi ESE 6.9 mph - N/A   Clear
2:55 PM - - N/A% 30.09 in 10.0 mi East 6.9 mph - N/A   Clear
3:15 PM - - N/A% 30.08 in 10.0 mi East 9.2 mph - N/A   Clear
3:35 PM - - N/A% 30.08 in 10.0 mi ESE 10.4 mph 17.3 mph N/A   Clear
3:55 PM - - N/A% 30.07 in 10.0 mi ESE 8.1 mph 18.4 mph N/A   Clear
4:15 PM - - N/A% 30.06 in 10.0 mi ESE 10.4 mph 19.6 mph N/A   Clear
4:35 PM - - N/A% 30.05 in 10.0 mi ESE 12.7 mph 17.3 mph N/A   Clear
4:55 PM - - N/A% 30.04 in 10.0 mi ESE 11.5 mph 19.6 mph N/A   Clear
5:15 PM - - N/A% 30.04 in 10.0 mi East 8.1 mph - N/A   Clear
5:35 PM - - N/A% 30.04 in 10.0 mi East 16.1 mph 24.2 mph N/A   Clear
5:55 PM - - N/A% 30.04 in 10.0 mi East 20.7 mph 25.3 mph N/A   Clear
6:15 PM - - N/A% 30.04 in 10.0 mi East 11.5 mph 21.9 mph N/A   Clear
6:35 PM - - N/A% 30.04 in 10.0 mi East 16.1 mph 20.7 mph N/A   Clear
6:55 PM - - N/A% 30.04 in 10.0 mi ESE 9.2 mph - N/A   Clear
7:15 PM - - N/A% 30.04 in 10.0 mi ESE 11.5 mph - N/A   Clear
7:35 PM - - N/A% 30.05 in 10.0 mi ESE 12.7 mph - N/A   Clear
7:55 PM - - N/A% 30.05 in 10.0 mi ENE 24.2 mph 27.6 mph N/A   Clear
8:15 PM 77.9 °F 49.6 °F 37% 30.06 in 10.0 mi ENE 26.5 mph 35.7 mph N/A   Clear
8:35 PM 74.7 °F 52.7 °F 46% 30.08 in 10.0 mi ENE 24.2 mph 32.2 mph N/A   Clear
8:55 PM 72.3 °F 53.2 °F 51% 30.10 in 10.0 mi East 21.9 mph 27.6 mph N/A   Clear
9:15 PM 70.9 °F 53.4 °F 54% 30.11 in 10.0 mi East 19.6 mph 28.8 mph N/A   Clear
9:35 PM 68.9 °F 53.2 °F 57% 30.12 in 10.0 mi East 17.3 mph 25.3 mph N/A   Clear
9:55 PM 67.1 °F 52.9 °F 60% 30.13 in 10.0 mi East 19.6 mph 28.8 mph N/A   Clear
10:15 PM 65.8 °F 52.7 °F 62% 30.15 in 10.0 mi East 18.4 mph 24.2 mph N/A   Clear
10:35 PM 64.4 °F 52.0 °F 64% 30.15 in 10.0 mi ENE 17.3 mph 21.9 mph N/A   Clear
10:55 PM 63.0 °F 51.8 °F 67% 30.15 in 10.0 mi East 19.6 mph 23.0 mph N/A   Clear
11:15 PM 62.1 °F 51.3 °F 68% 30.15 in 10.0 mi East 16.1 mph 23.0 mph N/A   Clear
11:35 PM 61.0 °F 51.1 °F 70% 30.15 in 10.0 mi East 13.8 mph - N/A   Clear
11:55 PM 60.3 °F 50.9 °F 71% 30.16 in 10.0 mi East 12.7 mph - N/A   Clear